sat.trackr.live / text

‹ back to catalog

GRUS-3D

NORAD 69919 · 2026-156BC

PAYLOAD ACTIVE UNKNOWN

§ Identity

Operator
Country
JPN
Launch date
2026-07-07
Launch site
AFWTR
Launch vehicle
Mass (kg)
RCS (m²)

External: N2YO · Heavens-Above · Gunter

§ Orbital elements

Epoch: 2026-09-19T10:53:40.046208Z

Period
96.52 min
Inclination
97.7436°
Eccentricity
0.0005577
Mean motion
14.91962022 rev/d
Perigee alt
587.9 km
Apogee alt
595.7 km
Semi-major
6,970.0 km
B*
6.8130e-5
RAAN
161.6658°
Arg perigee
268.1990°
Mean anomaly
91.8590°
Rev number
1,105

§ Raw data

GRUS-3D1 69919U 26156BC  26262.45393572  .00000634  00000+0  68130-4 0  99942 69919  97.7436 161.6658 0005577 268.1990  91.8590 14.91962022 11059

JSON: /api/v1/satellites/69919 · /tle

For live sub-satellite position, see the globe view (requires WebGL).

§ Visibility from observer

Set your observer location to see the next 7 days of passes ≥ 10°. The values pass through the URL so the page stays shareable.

No JS? Fill the form by hand. The geolocation button needs JavaScript.